Погода в Мелеузе

Россия / Республика Башкортостан     52°57′32″N   55°55′41″E
темп.,
°C
ветер,
м/с
пор.,
м/с
влажн.,
%
обл.,
%
осадки,
мм/ч
давл.,
гПа
погр.,
м
29 июля, чт
чт2923:00+13ссв22505 0.0 101411
02:00+10ссв00600 0.0 101510
05:00+9ююв11665 0.0 101510
08:00+15ю11462 0.0 1015184
11:00+22зюз34275 0.0 10141871
14:00+26з45215 0.0 10132402
17:00+27з5618100 0.0 10112636
20:00+23з2328100 0.0 101139
30 июля, пт
пт3023:00+19з5962100 0.0 1012256
02:00+18ю2369100 0.0 101172
05:00+16ююв3586100 0.6 1011165
08:00+20ю61265100 0.0 1010610
11:00+25юз81032100 0.1 10081256
14:00+29з81135100 0.0 10072871
17:00+29зсз7123684 0.0 10072358
20:00+28з593852 0.0 10071031
31 июля, сб
сб3123:00+23сз365040 0.0 1008143
02:00+18с117584 0.0 100911
05:00+17ююв118030 0.0 101011
08:00+23ююв23566 0.0 1010218
11:00+30юз57352 0.0 10091873
14:00+34зюз6926100 0.0 10073535
17:00+26зюз101253100 0.3 1009717
20:00+20юз71474100 0.8 1010291
1 августа, вс
вс123:00+19зюз467985 1.2 101193
02:00+19вюв018398 0.7 101011
05:00+18юв008695 0.9 101011
08:00+21з13770 0.0 1011234
11:00+28сз46455 0.0 10111708
14:00+31сз67253 0.0 10112971
17:00+32сз462299 0.0 10113139
20:00+29зсз4729100 0.0 1011388
2 августа, пн
пн223:00+21зсз224713 0.0 101314
02:00+19ююз115383 0.0 101311
05:00+18ююв115685 0.0 101411
08:00+23ю224128 0.0 1014206
11:00+31з46285 0.0 10142021
14:00+34з66210 0.0 10133056
17:00+34з55182 0.0 10123280
20:00+31зюз47230 0.0 1012196